TimeEST,TemperatureF,Dew PointF,Humidity,Sea Level PressureIn,VisibilityMPH,Wind Direction,Wind SpeedMPH,Gust SpeedMPH,PrecipitationIn,Events,Conditions,WindDirDegrees,DateUTC
12:53 AM,35.1,26.1,70,29.82,10.0,SE,3.5,-,N/A,,Partly Cloudy,130,2013-01-20 05:53:00
1:53 AM,33.1,26.1,75,29.80,10.0,Calm,Calm,-,N/A,,Clear,0,2013-01-20 06:53:00
2:53 AM,30.9,24.1,76,29.79,10.0,SE,3.5,-,N/A,,Clear,130,2013-01-20 07:53:00
3:53 AM,37.9,26.1,62,29.76,10.0,SSE,4.6,-,N/A,,Clear,150,2013-01-20 08:53:00
4:53 AM,37.0,26.1,65,29.71,10.0,SE,3.5,-,N/A,,Clear,140,2013-01-20 09:53:00
5:53 AM,28.9,23.0,78,29.68,10.0,Calm,Calm,-,N/A,,Clear,0,2013-01-20 10:53:00
6:53 AM,27.0,23.0,85,29.68,10.0,Calm,Calm,-,N/A,,Clear,0,2013-01-20 11:53:00
7:53 AM,27.0,21.9,81,29.68,10.0,Calm,Calm,-,N/A,,Clear,0,2013-01-20 12:53:00
8:53 AM,42.1,25.0,51,29.68,10.0,South,5.8,-,N/A,,Clear,180,2013-01-20 13:53:00
9:53 AM,46.0,24.1,42,29.67,10.0,SSW,15.0,25.3,N/A,,Clear,200,2013-01-20 14:53:00
10:53 AM,48.0,25.0,41,29.64,10.0,SW,19.6,35.7,N/A,,Clear,220,2013-01-20 15:53:00
11:53 AM,48.0,26.1,42,29.63,10.0,SW,13.8,20.7,N/A,,Overcast,230,2013-01-20 16:53:00
12:53 PM,48.0,26.1,42,29.64,10.0,West,9.2,-,N/A,,Mostly Cloudy,260,2013-01-20 17:53:00
1:53 PM,50.0,19.9,31,29.66,10.0,West,16.1,25.3,N/A,,Clear,280,2013-01-20 18:53:00
2:53 PM,48.9,17.1,28,29.70,10.0,West,12.7,21.9,N/A,,Clear,280,2013-01-20 19:53:00
3:53 PM,46.0,14.0,28,29.75,10.0,NW,13.8,26.5,N/A,,Clear,310,2013-01-20 20:53:00
4:53 PM,41.0,12.0,31,29.82,10.0,WNW,17.3,32.2,N/A,,Clear,300,2013-01-20 21:53:00
5:53 PM,37.9,10.9,33,29.87,10.0,West,11.5,19.6,N/A,,Clear,280,2013-01-20 22:53:00
6:53 PM,35.1,10.9,37,29.91,10.0,West,12.7,-,N/A,,Clear,270,2013-01-20 23:53:00
7:53 PM,33.1,12.0,42,29.95,10.0,WNW,11.5,-,N/A,,Clear,290,2013-01-21 00:53:00
8:53 PM,30.9,10.0,42,29.98,10.0,West,10.4,-,N/A,,Mostly Cloudy,280,2013-01-21 01:53:00
9:53 PM,30.0,8.1,40,30.01,10.0,West,11.5,17.3,N/A,,Scattered Clouds,270,2013-01-21 02:53:00
10:53 PM,28.0,5.0,38,30.03,10.0,WNW,9.2,-,N/A,,Clear,300,2013-01-21 03:53:00
11:53 PM,28.0,6.1,39,30.02,10.0,West,9.2,-,N/A,,Clear,270,2013-01-21 04:53:00